TimeEST,TemperatureF,Dew PointF,Humidity,Sea Level PressureIn,VisibilityMPH,Wind Direction,Wind SpeedMPH,Gust SpeedMPH,PrecipitationIn,Events,Conditions,WindDirDegrees,DateUTC
12:15 AM,37.4,24.8,60,30.06,10.0,West,10.4,18.4,N/A,,Clear,270,2013-03-04 05:15:00
12:35 AM,37.4,24.8,60,30.07,10.0,West,10.4,17.3,N/A,,Clear,270,2013-03-04 05:35:00
12:55 AM,37.4,23.0,56,30.07,10.0,West,9.2,17.3,N/A,,Clear,260,2013-03-04 05:55:00
1:15 AM,37.4,23.0,56,30.06,10.0,West,10.4,-,N/A,,Clear,270,2013-03-04 06:15:00
1:55 AM,35.6,23.0,60,30.07,10.0,West,9.2,-,N/A,,Clear,280,2013-03-04 06:55:00
2:15 AM,35.6,23.0,60,30.07,10.0,West,10.4,16.1,N/A,,Clear,280,2013-03-04 07:15:00
2:35 AM,35.6,23.0,60,30.07,10.0,West,8.1,-,N/A,,Clear,280,2013-03-04 07:35:00
2:55 AM,35.6,23.0,60,30.07,10.0,WNW,8.1,17.3,N/A,,Clear,290,2013-03-04 07:55:00
3:15 AM,35.6,23.0,60,30.07,10.0,WNW,11.5,16.1,N/A,,Clear,290,2013-03-04 08:15:00
3:35 AM,35.6,23.0,60,30.08,10.0,WNW,8.1,-,N/A,,Clear,290,2013-03-04 08:35:00
3:55 AM,35.6,23.0,60,30.09,10.0,WNW,11.5,16.1,N/A,,Clear,300,2013-03-04 08:55:00
4:15 AM,35.6,23.0,60,30.10,7.0,WNW,10.4,-,N/A,,Clear,300,2013-03-04 09:15:00
4:35 AM,35.6,23.0,60,30.11,10.0,WNW,13.8,18.4,N/A,,Clear,300,2013-03-04 09:35:00
4:55 AM,33.8,23.0,65,30.13,10.0,WNW,11.5,-,N/A,,Clear,300,2013-03-04 09:55:00
5:15 AM,33.8,23.0,65,30.13,10.0,WNW,10.4,-,N/A,,Clear,300,2013-03-04 10:15:00
5:35 AM,33.8,23.0,65,30.14,10.0,NW,10.4,-,N/A,,Clear,320,2013-03-04 10:35:00
5:55 AM,33.8,23.0,65,30.15,10.0,NW,9.2,-,N/A,,Clear,320,2013-03-04 10:55:00
7:35 AM,33.8,23.0,65,30.18,10.0,NW,8.1,-,N/A,,Clear,310,2013-03-04 12:35:00
7:55 AM,33.8,23.0,65,30.18,10.0,NW,8.1,-,N/A,,Clear,320,2013-03-04 12:55:00
8:35 AM,37.4,21.2,52,30.18,10.0,North,6.9,-,N/A,,Clear,360,2013-03-04 13:35:00
8:55 AM,37.4,19.4,48,30.20,10.0,NNW,3.5,-,N/A,,Clear,340,2013-03-04 13:55:00
9:15 AM,41.0,19.4,42,30.21,10.0,NNW,8.1,-,N/A,,Clear,330,2013-03-04 14:15:00
9:35 AM,41.0,21.2,45,30.21,10.0,WNW,6.9,-,N/A,,Clear,290,2013-03-04 14:35:00
9:55 AM,41.0,19.4,42,30.22,10.0,NW,6.9,-,N/A,,Clear,310,2013-03-04 14:55:00
10:15 AM,42.8,19.4,39,30.21,10.0,NW,10.4,-,N/A,,Clear,310,2013-03-04 15:15:00
10:35 AM,42.8,19.4,39,30.21,10.0,Calm,Calm,-,N/A,,Clear,0,2013-03-04 15:35:00
10:55 AM,44.6,17.6,34,30.19,10.0,NNW,6.9,-,N/A,,Clear,340,2013-03-04 15:55:00
11:15 AM,44.6,19.4,37,30.19,10.0,NW,4.6,-,N/A,,Clear,320,2013-03-04 16:15:00
11:35 AM,46.4,19.4,34,30.18,10.0,NW,9.2,-,N/A,,Clear,320,2013-03-04 16:35:00
11:55 AM,46.4,19.4,34,30.18,10.0,NNW,11.5,-,N/A,,Clear,340,2013-03-04 16:55:00
12:15 PM,48.2,19.4,32,30.17,10.0,NNW,5.8,-,N/A,,Clear,330,2013-03-04 17:15:00
12:55 PM,50.0,19.4,30,30.15,10.0,NW,5.8,-,N/A,,Clear,310,2013-03-04 17:55:00
1:15 PM,50.0,19.4,30,30.14,10.0,WNW,4.6,-,N/A,,Clear,300,2013-03-04 18:15:00
1:55 PM,51.8,17.6,26,30.11,10.0,Calm,Calm,-,N/A,,Clear,0,2013-03-04 18:55:00
2:15 PM,53.6,19.4,26,30.11,10.0,West,6.9,-,N/A,,Clear,280,2013-03-04 19:15:00
2:55 PM,55.4,19.4,25,30.11,10.0,WNW,6.9,-,N/A,,Clear,290,2013-03-04 19:55:00
3:15 PM,55.4,19.4,25,30.11,10.0,West,5.8,-,N/A,,Clear,280,2013-03-04 20:15:00
3:55 PM,55.4,19.4,25,30.10,10.0,SW,4.6,-,N/A,,Clear,230,2013-03-04 20:55:00
4:35 PM,50.0,32.0,50,30.10,10.0,South,9.2,-,N/A,,Clear,190,2013-03-04 21:35:00
4:55 PM,50.0,32.0,50,30.10,10.0,SSW,5.8,-,N/A,,Clear,200,2013-03-04 21:55:00
5:15 PM,50.0,32.0,50,30.10,10.0,South,9.2,-,N/A,,Clear,190,2013-03-04 22:15:00
5:35 PM,48.2,32.0,54,30.11,10.0,South,6.9,-,N/A,,Clear,190,2013-03-04 22:35:00
5:55 PM,46.4,32.0,57,30.11,10.0,South,5.8,-,N/A,,Clear,190,2013-03-04 22:55:00
6:15 PM,46.4,32.0,57,30.12,10.0,South,6.9,-,N/A,,Clear,190,2013-03-04 23:15:00
6:35 PM,46.4,32.0,57,30.13,10.0,SSW,6.9,-,N/A,,Clear,200,2013-03-04 23:35:00
6:55 PM,46.4,33.8,62,30.14,10.0,SSW,5.8,-,N/A,,Clear,210,2013-03-04 23:55:00
7:15 PM,46.4,33.8,62,30.14,10.0,SSW,5.8,-,N/A,,Clear,200,2013-03-05 00:15:00
7:55 PM,44.6,35.6,71,30.14,10.0,SSW,4.6,-,N/A,,Clear,200,2013-03-05 00:55:00
8:15 PM,44.6,35.6,71,30.14,10.0,South,3.5,-,N/A,,Clear,190,2013-03-05 01:15:00
8:35 PM,42.8,35.6,76,30.14,10.0,Calm,Calm,-,N/A,,Clear,0,2013-03-05 01:35:00
8:55 PM,42.8,35.6,76,30.15,10.0,South,3.5,-,N/A,,Clear,190,2013-03-05 01:55:00
9:35 PM,42.8,35.6,76,30.15,10.0,South,3.5,-,N/A,,Clear,170,2013-03-05 02:35:00
9:55 PM,42.8,37.4,81,30.15,10.0,South,3.5,-,N/A,,Clear,180,2013-03-05 02:55:00
10:15 PM,42.8,37.4,81,30.14,10.0,Calm,Calm,-,N/A,,Clear,0,2013-03-05 03:15:00
10:35 PM,44.6,37.4,76,30.14,10.0,Calm,Calm,-,N/A,,Clear,0,2013-03-05 03:35:00
10:55 PM,44.6,37.4,76,30.13,10.0,SSW,4.6,-,N/A,,Clear,200,2013-03-05 03:55:00
11:15 PM,46.4,41.0,81,30.13,10.0,South,5.8,-,N/A,,Clear,190,2013-03-05 04:15:00
11:35 PM,48.2,41.0,76,30.12,10.0,South,4.6,-,N/A,,Clear,190,2013-03-05 04:35:00
11:55 PM,48.2,41.0,76,30.11,10.0,SSW,3.5,-,N/A,,Clear,200,2013-03-05 04:55:00